IW4EMA-3 Weather Reports


time (UTC)temp
C
wind
direction
speed
KPH
gust
KPH
rain 1hr
cm
rain 24hr
cm
rain mn
cm
humidity
%
barometer
mb
20260505041022 16 196 1.6 3.2 0.00 0.00 0.00 71 1012.8
20260505040029 17 221 3.2 4.8 0.00 0.00 0.00 68 1012.6
20260505035041 17 221 1.6 3.2 0.00 0.00 0.00 68 1012.6
20260505012622 17 245 4.8 4.8 0.00 0.00 0.00 65 1013.3
20260505011629 17 213 8.0 14.5 0.00 0.00 0.00 64 1013.4
20260505010621 17 202 6.4 12.9 0.00 0.00 0.00 65 1013.4
20260505005650 17 207 6.4 9.7 0.00 0.00 0.00 64 1013.6
20260505004642 17 216 9.7 17.7 0.00 0.00 0.00 65 1013.7
20260505003641 17 200 6.4 9.7 0.00 0.00 0.00 67 1013.6
20260505002622 17 215 9.7 12.9 0.00 0.00 0.00 66 1013.9
20260504232222 17 210 9.7 16.1 0.00 0.00 0.00 63 1014.4
20260504231230 17 228 11.3 17.7 0.00 0.00 0.00 63 1014.6
20260504230221 17 196 11.3 16.1 0.00 0.00 0.00 65 1014.5
20260504225229 16 213 8.0 12.9 0.00 0.00 0.00 68 1014.7
20260504224222 16 211 8.0 12.9 0.00 0.00 0.00 71 1014.8
20260504223230 16 209 6.4 9.7 0.00 0.00 0.00 73 1015.0
20260504222222 16 206 4.8 6.4 0.00 0.00 0.00 73 1015.0
20260504221230 16 175 4.8 6.4 0.00 0.00 0.00 72 1014.9
20260504220224 16 179 3.2 4.8 0.00 0.00 0.00 73 1015.3
20260504205230 17 180 4.8 6.4 0.00 0.00 0.00 72 1015.4
20260504204241 17 157 4.8 6.4 0.00 0.00 0.00 70 1015.3
20260504203229 17 170 3.2 4.8 0.00 0.00 0.00 69 1015.3
20260504202223 17 174 4.8 6.4 0.00 0.00 0.00 68 1015.2
20260504201230 18 185 4.8 6.4 0.00 0.00 0.00 67 1015.2
20260504200222 18 150 6.4 11.3 0.00 0.00 0.00 64 1015.2
20260504195231 18 165 4.8 9.7 0.00 0.00 0.00 64 1015.1
20260504194223 19 170 6.4 9.7 0.00 0.00 0.00 62 1015.0
20260504193250 19 151 8.0 12.9 0.00 0.00 0.00 62 1015.0
20260504192222 19 152 8.0 12.9 0.00 0.00 0.00 61 1014.8
20260504191230 20 143 6.4 9.7 0.00 0.00 0.00 60 1014.9
20260504190222 20 147 4.8 6.4 0.00 0.00 0.00 58 1014.7
20260504185230 20 145 4.8 6.4 0.00 0.00 0.00 56 1014.8
20260504184222 20 174 3.2 4.8 0.00 0.00 0.00 55 1014.6
20260504183230 20 176 6.4 11.3 0.00 0.00 0.00 54 1014.7
20260504182222 21 141 4.8 12.9 0.00 0.00 0.00 53 1014.8
20260504181230 21 166 6.4 11.3 0.00 0.00 0.00 52 1014.7
20260504180242 21 164 6.4 9.7 0.00 0.00 0.00 51 1014.7
20260504175229 21 167 8.0 11.3 0.00 0.00 0.00 51 1014.6
20260504174222 22 167 8.0 16.1 0.00 0.00 0.00 50 1014.6
20260504173231 22 164 9.7 14.5 0.00 0.00 0.00 48 1014.6
20260504172222 22 185 14.5 24.1 0.00 0.00 0.00 48 1014.5
20260504171234 23 159 9.7 12.9 0.00 0.00 0.00 47 1014.5
20260504170222 23 170 9.7 17.7 0.00 0.00 0.00 46 1014.5
20260504160223 25 173 6.4 9.7 0.00 0.00 0.00 34 1014.7
20260504150223 26 185 4.8 11.3 0.00 0.00 0.00 34 1014.9
20260504141230 25 204 8.0 12.9 0.00 0.00 0.00 33 1015.4
20260504140223 25 217 4.8 12.9 0.00 0.00 0.00 36 1015.4
20260504130223 25 277 1.6 3.2 0.00 0.00 0.00 36 1015.9
20260504120243 24 241 1.6 3.2 0.00 0.00 0.00 38 1016.3
20260504110223 26 32 0.0 3.2 0.00 0.00 0.00 36 1016.7
20260504100223 25 316 4.8 4.8 0.00 0.00 0.00 37 1017.2
20260504081230 23 309 1.6 3.2 0.00 0.00 0.00 44 1017.4
20260504080223 22 313 3.2 4.8 0.00 0.00 0.00 49 1017.3
20260504070223 21 302 1.6 3.2 0.00 0.00 0.00 54 1017.2
20260504060223 17 0.0 0.0 0.00 0.00 0.00 64 1016.7
20260504050224 15 0.0 0.0 0.00 0.00 0.00 73 1016.3